Location: Pinhey's Point
(45.4411°N, 75.9539°W)
Time: 09:44:37
(UTC-04:00)

Daily predictions for brighter satellites

Satellite Brightness Start Highest point End
(mag) Time Altitude Azimuth Time Altitude Azimuth Time Altitude Azimuth
Meteor 1-19 Rocket 4.4 21:08:40 10° S 21:14:28 90° ESE 21:20:13 10° N
ASTEX 1 3.6 21:10:16 10° SSE 21:15:02 54° E 21:19:49 10° N
Intercosmos 24 4.2 21:11:55 10° N 21:15:39 42° ENE 21:19:01 10° SSE
Meteor 1-23 Rocket 4.4 21:11:37 10° S 21:17:01 53° E 21:22:29 10° NNE
Cosmos 1025 Rocket 3.3 21:14:50 10° SSE 21:18:55 47° E 21:23:02 10° NNE
Cosmos 2112 Rocket 4.0 21:14:49 10° SSW 21:20:02 86° ESE 21:25:16 10° NNE
Lacrosse 5 rocket 4.1 21:16:43 10° NW 21:20:03 19° N 21:23:24 10° NE
USA 186 3.9 21:17:25 10° SSW 21:20:07 25° W 21:22:44 10° NW
Cosmos 1624 Rocket 4.2 21:19:29 10° NNW 21:24:46 66° ENE 21:30:02 10° SSE
Okean 2 3.9 21:21:08 10° SSE 21:24:58 41° E 21:28:50 10° NNE
USA 245 4.2 21:26:14 10° ESE 21:27:45 15° ENE 21:29:13 10° NNE
Cosmos 2074 Rocket 4.4 21:23:03 10° NNW 21:29:15 68° W 21:35:27 10° S
Cosmos 2278 4.1 21:25:13 10° NNW 21:30:49 53° ENE 21:36:16 10° SE
Cosmos 2082 Rocket 3.3 21:27:38 10° SSE 21:32:03 24° ESE 21:36:27 10° NE
COSMOS 2406 3.9 21:26:42 10° SW 21:32:22 62° WNW 21:38:03 10° NNE
H-2A R/B 3.2 21:28:51 10° ESE 21:33:01 28° ENE 21:37:17 10° N
SL-27 R/B 3.0 21:29:32 10° SSW 21:33:09 66° WNW 21:36:48 10° NNE
Cosmos 2184 Rocket 4.5 21:27:24 10° NNW 21:33:42 65° W 21:39:54 10° S
Cosmos 2058 Rocket 3.9 21:31:09 10° N 21:35:13 35° ENE 21:39:01 11° SE
Meteor 1-15 Rocket 4.2 21:30:42 10° N 21:36:19 78° E 21:41:53 10° SSE
MOS 1-B Rocket 4.2 21:33:02 10° SSE 21:38:49 66° ENE 21:45:28 10° N
Cosmos 2181 Rocket 4.5 21:32:55 10° SSE 21:38:50 43° E 21:44:41 10° NNE
Cosmos 1680 Rocket 4.4 21:37:14 10° SW 21:42:20 54° WNW 21:47:28 10° NNE
YAOGAN 11 4.4 21:38:19 11° SE 21:42:21 51° ENE 21:46:35 10° N
Cosmos 2056 Rocket 3.5 21:39:04 10° NNW 21:44:17 88° ENE 21:49:17 11° SSE
Meteor 1-4 Rocket 4.1 21:44:15 10° NNE 21:47:04 21° ENE 21:49:11 13° ESE
YAOGAN 6 3.2 21:44:14 10° S 21:47:39 51° W 21:51:06 10° NNW
Cosmos 1697 Rocket 3.5 21:43:39 10° NNW 21:48:54 39° NE 21:53:32 13° ESE
Envisat 4.4 21:44:16 10° SSW 21:48:55 36° W 21:53:36 10° NNW
Cosmos 2369 3.8 21:45:19 10° NNW 21:51:04 74° ENE 21:56:03 14° SSE
Cosmos 839 Rocket 4.4 21:45:46 10° NW 21:52:16 88° ENE 21:59:18 13° SSE
Cosmos 1656 4.0 21:46:57 10° NNW 21:52:19 54° ENE 21:56:49 15° SE
Resurs 01 Rocket 4.5 21:50:40 10° WSW 21:52:38 13° W 21:54:37 10° WNW
SL-16 R/B 4.4 21:53:07 10° N 21:56:00 14° NE 21:58:53 10° ENE
Cosmos 962 Rocket 4.5 21:50:22 10° N 21:56:39 79° E 22:02:44 10° SSE
H-2A R/B 3.7 21:54:53 12° ESE 21:57:56 22° ENE 22:01:27 10° NNE
Tiangong 2 1.2 21:58:44 10° WSW 22:01:51 52° S 22:04:05 17° ESE
Meteor 2-19 Rocket 4.5 21:56:59 10° N 22:03:09 89° WSW 22:09:15 10° S
Cosmos 1833 Rocket 3.1 22:01:47 10° S 22:07:00 41° ESE 22:12:16 10° NE
MetOp-A 4.3 22:02:23 10° S 22:07:42 75° WSW 22:13:05 10° NNW
Cosmos 1437 Rocket 3.7 22:09:51 10° NNW 22:13:31 43° W 22:17:13 10° SSW
SL-8 Rocket 4.1 22:07:45 10° N 22:14:01 67° E 22:19:00 17° SSE
COSMOS 2487 2.4 22:11:01 10° S 22:14:34 70° ESE 22:18:08 10° NNE
Terra 2.8 22:12:17 17° ESE 22:15:14 34° ENE 22:19:32 10° N
Cosmos 1271 Rocket 4.5 22:12:46 10° NNE 22:15:43 20° ENE 22:17:24 16° ESE
Cosmos 1452 Rocket 3.6 22:10:53 10° NNW 22:16:10 71° ENE 22:19:51 20° SSE
TELKOM 3 3.6 22:17:20 10° WNW 22:19:39 50° SSW 22:20:41 31° SSE
Cosmos 2228 2.9 22:15:20 10° N 22:19:40 85° E 22:22:37 20° S
Cosmos 2366 rocket 4.2 22:14:15 10° N 22:20:19 56° ENE 22:24:34 20° SSE
Cosmos 921 Rocket 3.5 22:17:02 10° NNW 22:21:27 58° WSW 22:24:47 17° S
SPOT 5 2.8 22:18:47 16° S 22:22:10 71° WSW 22:26:34 10° NNW
NOSS 8 (H) 4.4 22:19:56 10° SSW 22:23:15 61° ESE 22:26:51 10° NE
SPOT 1/Viking Rocket 3.5 22:20:35 18° SSE 22:24:27 86° ENE 22:29:38 10° NNW
Iridium 43 3.2 22:22:43 10° N 22:24:56 83° W 22:25:29 45° S
Cosmos 1066 Rocket 4.2 22:20:34 14° S 22:25:11 63° E 22:30:48 10° NNE
ERS-1 Rocket 4.2 22:22:11 10° SSW 22:26:48 37° W 22:31:28 10° NNW
Cosmos 1515 4.4 22:25:42 10° SSW 22:29:24 52° WNW 22:33:09 10° N
Cosmos 1544 4.4 22:34:15 10° NNE 22:37:20 25° ENE 22:38:17 23° E
Cosmos 1892 Rocket 4.4 22:33:05 10° SSW 22:37:23 51° WNW 22:41:42 10° N
Cosmos 1980 Rocket 2.6 22:32:10 10° NNW 22:37:44 55° ENE 22:41:05 23° SE
Cosmos 1953 4.1 22:35:02 10° NNE 22:38:01 19° ENE 22:39:20 17° E
Cosmos 1602 Rocket 3.6 22:40:41 27° SSE 22:42:53 62° E 22:47:10 10° NNE
ARGOS 3.9 22:39:41 14° S 22:44:10 48° W 22:49:26 10° NNW
ISS -2.0 22:41:32 10° W 22:44:36 34° NNW 22:47:39 10° NE
Cosmos 468 4.5 22:41:30 18° S 22:45:25 65° ESE 22:50:41 10° NNE
SL-08 RB Rocket 4.4 22:44:22 18° SSW 22:47:27 47° W 22:51:48 10° NNW
Cosmos 2322 Rocket 3.6 22:43:44 10° N 22:48:38 28° NE 22:52:24 15° ESE
Cosmos 1766 3.3 22:45:52 10° N 22:49:46 62° E 22:51:05 37° SE
USA 229 DEB 3.9 22:43:47 10° NW 22:50:56 75° NE 22:55:39 24° SE
USA 229 3.9 22:43:54 10° NW 22:51:03 75° NE 22:55:46 24° SE
Meteor 1-21 4.5 22:49:12 26° SSE 22:52:13 53° E 22:57:48 10° NNE
deb Chang Zheng 4 3.9 22:48:50 10° NNE 22:53:00 47° E 22:54:23 34° SSE
Meteor 2-14 Rocket 4.4 22:49:12 10° N 22:55:18 79° E 22:58:46 27° SSE
CZ-3A R/B 2.3 22:54:33 10° WSW 22:55:14 15° WSW 22:55:14 15° WSW
SL-08 R/B 4.5 22:50:50 10° N 22:56:57 81° W 23:00:52 24° S
Timation 2 Rocket 3.9 22:52:15 14° SSW 22:57:42 67° ESE 23:03:46 10° NNE
Lacrosse 5 rocket 3.2 22:56:19 10° NW 23:00:30 32° NNE 23:04:30 11° E
Cosmos 2218 Rocket 4.2 22:56:10 10° NNW 23:02:16 65° W 23:06:29 21° S
Cosmos 158 Rocket 4.0 23:02:36 28° S 23:05:24 64° ESE 23:10:45 10° NNE
CARTOSAT-1 3.6 23:07:08 35° S 23:08:52 73° WSW 23:13:12 10° NNW
CZ-2C R/B 4.4 23:07:10 10° NE 23:10:39 17° E 23:11:39 16° E
H-2A R/B 3.0 23:09:14 19° SSW 23:12:16 40° W 23:17:02 10° NNW
CZ-4B R/B 3.7 23:09:10 10° NNE 23:14:11 55° E 23:16:02 36° SSE
Cosmos 2082 Rocket 2.8 23:10:09 10° SW 23:15:43 56° WNW 23:21:18 10° NNE
Meteor 2-16 Rocket 4.5 23:11:11 10° N 23:17:22 81° W 23:20:36 30° S
CZ-4 R/B 3.9 23:13:09 10° NNE 23:18:12 71° ESE 23:20:15 36° S
Cosmos 1805 3.2 23:16:07 10° N 23:20:03 76° E 23:20:47 55° SSE
Cosmos 1758 3.4 23:16:31 10° N 23:20:29 59° E 23:21:12 49° SE
Meteor 1-4 Rocket 4.3 23:19:14 10° NW 23:22:11 24° W 23:23:30 19° SW
IGS 5A 4.1 23:25:25 34° SSW 23:26:47 48° W 23:30:50 10° NNW
Nadezhda 3 Rocket 4.0 23:27:58 31° S 23:31:13 81° E 23:37:35 10° N
Cosmos 1758 Rocket 3.8 23:30:38 45° ESE 23:31:13 49° E 23:35:27 10° NNE
Cosmos 1697 Rocket 3.7 23:27:45 10° NW 23:32:48 35° WSW 23:35:16 24° SSW
H-2A R/B 3.0 23:32:00 30° SSW 23:33:40 43° W 23:38:01 10° NNW
SL-19 R/B 4.3 23:28:22 10° N 23:33:42 71° WNW 23:36:43 26° SSW
ATLAS CENTAUR R/B 1.9 23:30:19 10° NNW 23:33:50 42° NE 23:34:34 37° E
Cosmos 1812 Rocket 4.4 23:30:05 10° NNW 23:34:21 44° W 23:36:00 30° SW
Cosmos 2360 4.4 23:32:10 10° NNW 23:37:49 64° WSW 23:39:55 38° S
Tiangong 2 3.4 23:35:23 10° W 23:36:17 17° WSW 23:36:17 17° WSW
Cosmos 1269 Rocket 4.3 23:36:00 22° SW 23:39:27 66° WNW 23:44:45 10° NNE
SL-16 R/B 2.4 23:35:41 10° NNW 23:41:20 63° ENE 23:43:35 36° SE
Iridium 2 4.4 23:37:48 10° NNW 23:41:27 46° W 23:42:13 40° SW
Cosmos 1821 Rocket 4.0 23:37:41 10° N 23:44:01 80° E 23:46:37 38° SSE
Cosmos 389 Rocket 2.4 23:44:50 10° NNW 23:48:14 74° W 23:48:14 74° W
CZ-4C R/B 3.1 23:48:47 63° WSW 23:48:55 64° WSW 23:52:33 10° NNW
Cosmos 1842 4.2 23:48:56 33° WSW 23:50:06 43° WNW 23:53:54 10° N
Cosmos 972 Rocket 3.9 23:45:13 10° NNW 23:50:28 81° ENE 23:51:48 50° SSE
Cosmos 1331 Rocket 3.9 23:45:42 10° NNW 23:50:54 84° ENE 23:52:20 49° SSE
Cosmos 1833 Rocket 4.2 23:45:56 10° WSW 23:51:00 34° NW 23:56:08 10° NNE
Cosmos 1271 Rocket 4.0 23:48:19 10° NNW 23:51:49 32° W 23:52:36 29° WSW
Terra 3.2 23:51:09 22° SW 23:53:00 29° W 23:57:08 10° NW
Cosmos 1110 Rocket 3.9 23:48:32 10° NNW 23:53:49 82° WSW 23:55:14 49° S
